Precipitable_Water
0.09 0.06 0.05 0.06 0.07 0.06 0.06 0.05 0.05 0.07 0.07 0.06 0.07 0.09 0.20 0.23 0.19 0.19 0.18 0.17 0.18 0.20 0.24 0.26 0.30 0.32 0.31 0.35 0.37 0.38 0.39 0.43 0.48 0.49 0.51 0.56 0.60 0.70 0.83 0.97 1.10 1.31 1.46 1.60
0.08 0.06 0.07 0.07 0.08 0.06 0.06 0.06 0.05 0.06 0.08 0.08 0.08 0.11 0.22 0.21 0.19 0.17 0.16 0.17 0.17 0.19 0.20 0.23 0.25 0.28 0.32 0.31 0.34 0.39 0.39 0.41 0.43 0.46 0.49 0.53 0.59 0.65 0.76 0.85 0.99 1.13 1.30 1.44
0.08 0.08 0.08 0.08 0.07 0.06 0.06 0.06 0.06 0.07 0.09 0.10 0.13 0.17 0.21 0.19 0.18 0.17 0.17 0.18 0.18 0.19 0.19 0.21 0.23 0.26 0.28 0.29 0.31 0.35 0.41 0.42 0.44 0.45 0.45 0.46 0.53 0.58 0.63 0.73 0.86 0.98 1.15 1.30
0.10 0.10 0.08 0.07 0.07 0.07 0.05 0.07 0.07 0.08 0.09 0.08 0.17 0.14 0.20 0.17 0.16 0.16 0.16 0.17 0.17 0.18 0.20 0.21 0.22 0.24 0.25 0.27 0.31 0.36 0.38 0.42 0.44 0.45 0.42 0.41 0.41 0.42 0.52 0.63 0.77 0.88 1.02 1.13
0.10 0.10 0.08 0.06 0.08 0.08 0.07 0.08 0.08 0.08 0.08 0.12 0.15 0.14 0.18 0.17 0.15 0.15 0.15 0.16 0.16 0.17 0.19 0.21 0.22 0.23 0.26 0.27 0.29 0.34 0.38 0.38 0.42 0.43 0.44 0.42 0.40 0.43 0.50 0.53 0.65 0.78 0.89 1.03
0.11 0.12 0.11 0.08 0.10 0.10 0.10 0.08 0.07 0.10 0.15 0.14 0.16 0.13 0.16 0.16 0.14 0.14 0.15 0.15 0.16 0.17 0.18 0.20 0.22 0.24 0.25 0.27 0.28 0.31 0.34 0.37 0.38 0.41 0.42 0.42 0.41 0.41 0.43 0.46 0.51 0.65 0.77 0.92
0.11 0.11 0.12 0.10 0.10 0.10 0.09 0.08 0.06 0.06 0.07 0.08 0.15 0.12 0.15 0.15 0.15 0.14 0.13 0.13 0.15 0.17 0.18 0.19 0.20 0.22 0.24 0.26 0.27 0.29 0.32 0.34 0.38 0.38 0.39 0.43 0.42 0.42 0.42 0.44 0.46 0.51 0.66 0.75
0.09 0.09 0.12 0.12 0.10 0.09 0.09 0.09 0.08 0.06 0.07 0.08 0.15 0.11 0.16 0.19 0.14 0.14 0.14 0.14 0.16 0.17 0.18 0.18 0.20 0.22 0.23 0.26 0.27 0.28 0.31 0.34 0.37 0.38 0.38 0.40 0.43 0.43 0.44 0.44 0.47 0.48 0.55 0.70
0.10 0.10 0.13 0.13 0.13 0.12 0.09 0.08 0.11 0.09 0.10 0.08 0.09 0.15 0.21 0.19 0.15 0.15 0.14 0.15 0.15 0.16 0.18 0.19 0.19 0.20 0.22 0.24 0.26 0.27 0.29 0.33 0.36 0.38 0.38 0.39 0.41 0.43 0.43 0.45 0.47 0.47 0.52 0.61
0.13 0.10 0.12 0.14 0.15 0.13 0.11 0.13 0.08 0.09 0.08 0.06 0.07 0.10 0.12 0.14 0.14 0.14 0.13 0.14 0.15 0.16 0.17 0.19 0.20 0.21 0.21 0.24 0.25 0.27 0.28 0.32 0.36 0.38 0.38 0.39 0.41 0.43 0.44 0.45 0.44 0.46 0.48 0.53
0.16 0.13 0.13 0.15 0.14 0.11 0.11 0.11 0.11 0.11 0.10 0.06 0.06 0.07 0.18 0.16 0.14 0.13 0.13 0.13 0.15 0.15 0.17 0.20 0.20 0.22 0.21 0.22 0.24 0.26 0.26 0.29 0.35 0.37 0.38 0.39 0.41 0.42 0.42 0.44 0.45 0.46 0.48 0.50
0.18 0.14 0.13 0.13 0.16 0.16 0.14 0.12 0.11 0.09 0.08 0.08 0.11 0.12 0.18 0.16 0.18 0.17 0.15 0.14 0.15 0.16 0.20 0.20 0.21 0.21 0.22 0.21 0.23 0.25 0.26 0.28 0.31 0.34 0.36 0.39 0.41 0.41 0.41 0.43 0.44 0.45 0.47 0.51
0.17 0.16 0.13 0.13 0.17 0.18 0.13 0.12 0.11 0.11 0.11 0.09 0.08 0.08 0.17 0.16 0.16 0.15 0.15 0.17 0.18 0.19 0.18 0.21 0.21 0.21 0.23 0.21 0.23 0.25 0.25 0.29 0.30 0.31 0.35 0.38 0.38 0.40 0.41 0.43 0.45 0.45 0.47 0.50
0.19 0.20 0.18 0.14 0.15 0.15 0.12 0.11 0.09 0.11 0.09 0.08 0.08 0.08 0.09 0.10 0.14 0.16 0.20 0.21 0.21 0.19 0.19 0.22 0.22 0.22 0.22 0.23 0.24 0.24 0.25 0.29 0.29 0.30 0.34 0.38 0.39 0.40 0.42 0.45 0.46 0.45 0.47 0.48
0.23 0.18 0.19 0.20 0.20 0.17 0.13 0.10 0.10 0.10 0.11 0.09 0.07 0.08 0.11 0.15 0.15 0.19 0.20 0.18 0.19 0.20 0.23 0.22 0.23 0.24 0.25 0.24 0.24 0.25 0.26 0.27 0.28 0.29 0.33 0.37 0.40 0.42 0.43 0.46 0.46 0.46 0.47 0.49
0.25 0.19 0.22 0.19 0.21 0.18 0.15 0.14 0.13 0.11 0.10 0.09 0.09 0.08 0.15 0.15 0.17 0.15 0.16 0.19 0.21 0.23 0.23 0.24 0.23 0.22 0.24 0.23 0.24 0.26 0.25 0.27 0.30 0.30 0.35 0.37 0.39 0.41 0.43 0.45 0.48 0.48 0.48 0.49
0.24 0.21 0.20 0.17 0.19 0.19 0.17 0.16 0.13 0.10 0.09 0.09 0.07 0.10 0.14 0.15 0.14 0.17 0.20 0.22 0.24 0.24 0.23 0.21 0.21 0.22 0.23 0.24 0.25 0.26 0.27 0.30 0.30 0.31 0.35 0.37 0.40 0.41 0.43 0.46 0.49 0.48 0.48 0.49
0.23 0.23 0.21 0.18 0.19 0.15 0.20 0.19 0.15 0.11 0.10 0.12 0.12 0.15 0.14 0.15 0.18 0.19 0.23 0.24 0.21 0.20 0.21 0.21 0.20 0.22 0.22 0.25 0.26 0.27 0.29 0.28 0.28 0.28 0.31 0.36 0.39 0.40 0.43 0.46 0.48 0.48 0.49 0.48
0.29 0.25 0.20 0.17 0.18 0.20 0.20 0.18 0.15 0.11 0.09 0.14 0.14 0.13 0.13 0.16 0.18 0.20 0.25 0.20 0.21 0.21 0.19 0.20 0.21 0.21 0.22 0.24 0.26 0.27 0.27 0.27 0.27 0.29 0.29 0.34 0.41 0.38 0.42 0.46 0.46 0.49 0.49 0.49
0.26 0.27 0.23 0.21 0.18 0.16 0.20 0.21 0.20 0.14 0.16 0.16 0.12 0.13 0.14 0.16 0.13 0.16 0.21 0.20 0.18 0.18 0.18 0.19 0.20 0.21 0.21 0.23 0.26 0.25 0.24 0.25 0.23 0.26 0.29 0.32 0.36 0.38 0.38 0.47 0.45 0.50 0.48 0.48
0.23 0.23 0.21 0.21 0.20 0.22 0.28 0.25 0.21 0.15 0.16 0.17 0.15 0.15 0.16 0.15 0.17 0.20 0.19 0.18 0.17 0.18 0.18 0.19 0.20 0.20 0.22 0.24 0.23 0.22 0.24 0.23 0.24 0.25 0.29 0.30 0.33 0.35 0.38 0.41 0.47 0.46 0.45 0.45
0.24 0.22 0.23 0.24 0.20 0.18 0.27 0.25 0.20 0.21 0.21 0.19 0.17 0.17 0.16 0.17 0.18 0.17 0.16 0.16 0.16 0.16 0.17 0.18 0.18 0.19 0.22 0.24 0.21 0.20 0.21 0.23 0.23 0.23 0.26 0.27 0.32 0.32 0.37 0.39 0.39 0.43 0.41 0.41
0.24 0.27 0.26 0.27 0.26 0.32 0.30 0.28 0.28 0.26 0.22 0.20 0.19 0.18 0.16 0.16 0.15 0.15 0.15 0.15 0.15 0.16 0.16 0.17 0.17 0.18 0.20 0.20 0.20 0.19 0.21 0.22 0.21 0.23 0.23 0.25 0.30 0.31 0.35 0.38 0.36 0.35 0.33 0.36
0.32 0.33 0.27 0.27 0.29 0.29 0.29 0.30 0.31 0.28 0.24 0.23 0.21 0.18 0.17 0.15 0.15 0.15 0.14 0.15 0.15 0.15 0.15 0.16 0.16 0.16 0.16 0.18 0.19 0.19 0.20 0.21 0.22 0.22 0.23 0.25 0.25 0.29 0.29 0.35 0.39 0.35 0.32 0.27
0.33 0.34 0.29 0.28 0.30 0.32 0.33 0.33 0.29 0.29 0.27 0.25 0.22 0.20 0.17 0.16 0.15 0.15 0.14 0.15 0.15 0.14 0.15 0.15 0.14 0.14 0.15 0.15 0.16 0.19 0.20 0.20 0.20 0.21 0.23 0.23 0.25 0.28 0.26 0.30 0.34 0.36 0.32 0.30
0.34 0.32 0.29 0.27 0.32 0.31 0.32 0.31 0.29 0.27 0.27 0.26 0.22 0.22 0.19 0.18 0.16 0.16 0.16 0.15 0.13 0.14 0.13 0.13 0.13 0.14 0.14 0.14 0.15 0.16 0.19 0.20 0.20 0.20 0.21 0.24 0.25 0.27 0.25 0.26 0.29 0.34 0.32 0.32
Wind_Speed
26 27 30 31 29 28 27 28 28 28 32 31 26 25 13 18 19 21 22 24 24 26 29 30 27 27 28 28 27 28 28 28 28 28 27 27 27 26 26 25 24 22 21 21
16 30 30 30 30 31 30 28 32 33 30 28 25 15 12 14 15 17 19 21 22 24 25 27 29 30 28 29 29 29 28 28 29 29 29 29 29 28 28 27 26 25 23 23
23 25 30 31 32 34 30 33 34 34 28 20 18 7 9 11 11 14 16 18 20 22 24 25 26 27 29 29 30 30 30 29 29 29 30 30 30 29 29 28 28 27 26 25
20 25 30 32 34 35 30 37 36 31 21 14 9 5 8 10 12 15 16 18 18 20 21 22 25 25 27 28 30 31 31 31 30 30 30 30 30 30 30 30 30 29 29 28
19 24 29 33 34 33 35 38 35 24 15 9 9 7 11 11 14 17 19 19 19 19 19 20 22 24 26 27 28 30 31 31 31 31 30 30 31 31 31 31 31 30 30 29
19 21 26 31 30 31 36 39 31 21 15 9 13 13 10 12 16 19 20 19 19 19 19 19 20 22 24 25 27 28 30 31 32 32 31 31 31 32 32 31 31 31 31 31
15 22 21 31 30 29 37 38 28 25 22 17 14 15 9 13 15 17 19 20 18 18 18 19 20 20 22 23 25 26 28 30 31 32 32 32 32 32 32 32 32 32 32 32
21 18 24 28 28 31 33 32 26 26 24 21 16 13 13 12 13 15 18 18 18 18 18 19 19 19 20 21 23 24 26 29 30 31 32 32 32 32 33 33 33 33 33 33
23 19 20 23 27 30 29 31 27 26 22 20 17 15 14 11 15 17 19 19 18 19 20 20 20 20 20 21 22 23 24 26 28 30 32 32 32 32 33 33 33 33 34 34
23 20 19 20 23 26 25 28 27 27 21 24 24 18 13 15 18 19 21 19 19 19 21 22 21 21 21 20 20 21 23 24 26 28 30 32 33 33 33 33 33 33 34 34
24 20 23 23 20 25 24 26 25 24 19 24 23 23 16 16 18 18 19 20 20 21 23 23 23 23 22 21 20 19 20 22 24 26 28 31 33 33 33 33 34 34 34 35
22 21 24 22 19 20 22 25 24 24 25 24 22 20 19 19 20 23 24 23 22 23 23 23 23 23 22 21 19 18 18 20 22 25 26 29 32 33 33 33 33 34 34 34
24 21 22 17 18 18 24 25 25 23 22 22 23 20 17 25 26 26 25 23 21 22 24 23 24 23 21 19 17 17 16 17 19 21 24 26 29 32 33 33 34 33 34 34
22 20 19 19 23 24 25 24 24 22 21 24 22 26 28 27 27 26 24 22 21 24 23 23 23 22 19 17 15 15 14 15 16 18 21 24 26 29 32 33 33 32 33 33
20 21 22 23 25 24 21 24 23 21 20 20 24 27 27 27 27 25 24 24 22 22 22 23 23 21 18 14 13 13 13 14 14 16 17 20 23 26 29 31 32 32 32 32
18 21 25 26 21 19 23 22 21 21 21 21 24 26 26 29 29 28 25 23 22 22 23 23 22 20 17 13 11 11 12 12 12 13 14 17 19 23 26 28 30 31 31 31
19 22 25 21 24 23 22 20 18 20 21 21 21 24 27 27 28 27 26 25 23 22 23 23 21 20 17 12 9 9 9 10 11 12 13 14 16 18 21 24 27 28 29 29
18 22 22 23 26 19 20 20 19 19 21 21 22 22 22 24 27 29 26 25 25 25 24 22 22 19 16 11 9 8 8 9 10 11 12 12 12 14 17 20 23 25 27 28
15 19 21 20 23 25 22 17 20 22 24 21 21 22 24 25 26 26 25 28 27 26 25 23 21 20 15 11 9 7 8 9 9 10 11 11 11 10 12 16 19 22 24 25
15 15 17 21 21 20 21 19 22 24 20 19 21 22 24 25 25 26 28 28 28 28 26 23 21 18 16 12 9 8 8 8 9 10 11 11 10 9 9 10 14 18 20 23
15 16 16 18 19 21 21 18 20 21 21 21 22 22 23 23 24 25 27 28 28 27 27 24 21 18 16 13 10 8 8 8 10 10 11 11 11 10 9 9 10 14 17 19
15 15 16 16 18 19 18 18 18 21 21 22 22 22 22 23 24 25 26 27 27 27 26 25 23 19 17 15 13 9 9 10 10 10 10 10 10 9 9 8 8 9 13 17
15 14 16 15 18 19 19 20 20 21 21 22 21 21 21 22 23 24 25 25 26 26 26 25 24 22 19 17 14 13 11 11 11 10 10 9 9 9 8 8 7 7 9 12
20 17 16 18 19 21 23 21 20 21 20 21 21 20 20 21 22 22 23 23 24 24 25 25 25 23 21 19 16 14 13 11 10 10 10 9 8 9 8 8 8 7 7 9
21 22 18 20 23 24 24 21 22 20 19 19 19 19 19 20 20 21 21 21 22 22 23 23 23 23 23 21 19 16 15 13 11 9 9 9 9 9 9 9 8 8 7 8
18 17 16 18 18 21 23 22 22 20 19 18 19 18 18 19 19 19 19 19 20 20 21 21 22 22 22 22 21 20 18 15 13 11 9 8 9 9 9 9 9 9 9 10
Wind_Direction
16 10 8 1 359 348 334 327 317 316 313 303 291 279 268 278 281 286 288 289 283 278 272 270 272 268 264 264 262 259 258 256 253 252 252 251 250 249 247 246 247 246 247 244
7 14 5 2 359 351 344 341 331 319 313 301 287 278 273 285 292 295 295 291 287 283 278 273 268 267 265 264 262 259 258 256 253 252 250 250 249 248 247 247 246 245 246 244
21 9 4 3 0 355 349 347 335 325 319 303 302 250 280 290 300 307 309 302 296 291 284 277 273 268 265 264 262 259 256 255 252 251 250 250 248 247 246 246 245 245 246 246
11 5 4 4 2 358 354 346 339 331 316 340 322 261 264 293 308 319 317 312 307 301 291 284 275 272 267 265 261 258 255 254 252 251 250 250 248 248 247 246 246 245 246 246
4 3 4 5 0 1 355 351 346 341 353 348 337 297 288 309 311 317 317 315 310 305 302 293 285 276 270 268 263 259 255 253 252 250 249 248 247 248 247 246 247 245 245 245
13 7 6 3 1 3 359 1 6 18 11 1 330 312 290 300 304 312 316 317 313 310 307 303 293 285 276 270 267 261 257 253 251 249 249 248 248 248 247 247 246 246 245 243
360 7 6 5 3 2 5 7 10 12 8 359 337 324 296 300 309 315 316 317 314 313 310 308 303 295 286 276 270 265 260 254 251 249 248 247 247 247 247 247 246 246 245 244
355 348 1 2 6 2 7 10 11 355 358 345 359 347 334 304 323 324 324 321 316 315 315 315 311 303 295 285 274 269 264 257 252 249 248 246 246 246 246 246 246 245 245 244
2 360 0 4 2 7 3 9 5 0 358 356 360 354 342 327 331 328 327 325 319 316 315 314 312 309 303 293 281 273 267 261 254 251 248 246 246 246 246 246 245 245 245 244
2 355 0 1 359 6 8 6 3 6 2 356 354 358 350 332 326 327 330 328 322 319 316 312 310 307 305 299 288 277 269 263 258 253 249 247 245 246 246 246 246 246 245 244
358 355 351 348 1 2 2 5 6 1 5 355 354 350 353 341 337 334 332 330 327 324 320 315 312 307 303 298 292 283 273 267 259 257 253 248 246 245 246 246 246 246 245 244
6 359 350 358 6 5 359 2 1 1 357 356 349 357 356 352 346 340 333 325 323 323 323 319 317 312 303 296 291 287 279 271 266 259 256 252 248 246 245 246 246 247 245 244
1 2 358 5 3 358 352 355 355 353 355 350 353 357 1 348 343 337 333 331 326 324 325 323 321 316 306 296 288 287 284 279 273 265 260 256 251 247 245 246 246 247 244 244
1 356 354 352 345 343 345 348 349 353 352 351 348 348 351 349 348 343 341 335 330 328 330 328 325 323 315 299 289 287 286 286 283 273 266 261 255 250 245 245 245 245 243 243
359 356 352 347 341 342 351 344 346 346 348 346 348 346 347 352 352 353 348 340 336 337 335 333 332 329 322 307 294 289 289 291 291 285 273 267 261 252 248 245 245 244 242 242
354 353 348 344 356 357 343 344 343 342 348 346 346 343 355 350 353 350 352 349 345 341 340 337 338 335 331 317 304 299 298 295 298 295 287 277 268 258 249 246 244 242 241 241
345 352 352 355 353 347 346 357 351 347 347 351 348 347 352 356 357 354 353 354 354 347 342 345 344 342 337 326 313 307 308 308 309 308 303 294 278 265 254 247 243 241 240 239
343 346 349 346 349 359 360 358 0 353 345 345 344 357 360 357 356 355 6 1 353 352 351 349 348 346 341 332 321 314 312 318 318 320 314 309 298 276 258 250 245 241 239 238
337 345 349 353 348 335 348 2 353 352 345 347 348 356 353 355 356 3 3 358 357 357 354 351 350 350 347 340 328 318 317 317 319 326 328 324 315 295 274 255 249 242 239 237
340 339 344 349 350 353 1 357 359 355 355 3 356 354 354 356 357 359 357 359 359 359 359 356 353 353 353 346 334 324 319 318 324 323 327 331 325 314 297 271 251 244 240 238
339 335 330 335 341 340 341 357 355 354 358 354 352 352 353 355 355 355 357 359 0 1 1 2 360 358 356 352 337 319 317 320 320 323 325 331 334 322 308 294 266 250 243 240
334 339 340 343 344 344 1 357 349 352 351 349 349 350 352 353 354 356 358 0 2 4 6 6 6 3 0 358 349 321 314 313 315 317 323 324 333 334 326 309 290 266 253 245
331 325 336 335 339 347 342 333 339 338 341 345 346 348 350 352 354 356 358 0 3 6 7 9 9 9 6 360 355 346 317 311 310 309 316 320 326 331 333 331 314 298 276 259
317 315 322 332 335 332 339 332 330 332 336 340 344 346 348 350 352 355 358 0 3 6 8 10 12 13 12 10 4 359 353 330 308 306 308 311 318 326 328 332 330 321 310 286
315 321 317 312 317 321 325 328 334 330 332 335 340 343 345 347 349 352 355 359 2 5 8 11 14 15 16 15 14 10 5 0 351 316 307 308 307 315 318 322 325 322 324 320
319 319 308 323 331 333 334 338 336 333 333 332 334 338 340 343 346 348 351 356 360 3 7 10 13 16 18 20 22 21 19 14 11 6 350 323 312 310 311 311 312 313 312 312